Weather in Yanishpole

Russia / Republic of Karelia     62°06′53″N   34°16′16″E
temp.,
°C
wind,
m/s
gust,
m/s
humid.,
%
clouds,
%
prec.,
mm/h
press.,
hPa
HPBL,
m
25 july, sun
sun2500:00+14wsw31057100 0.0 1013366
03:00+13wsw3766100 0.0 1014239
06:00+14wsw136769 0.0 1014114
09:00+18sw245034 0.0 1014463
12:00+22wsw3537100 0.0 10142451
15:00+23wsw2437100 0.0 10141886
18:00+23wsw2539100 0.0 1014558
21:00+19w2857100 0.0 1016298
26 july, mon
mon2600:00+16w1266100 0.0 101747
03:00+15w277333 0.0 1018154
06:00+15wsw277494 0.0 1018180
09:00+20wnw365938 0.0 1018534
12:00+26nw483696 0.0 10182649
15:00+24nnw2642100 0.1 10181625
18:00+22n135497 0.0 1018135
21:00+19sse117062 0.2 101914
27 july, tue
tue2700:00+15wsw11894 0.0 102010
03:00+13nnw119541 0.0 102111
06:00+15ne128577 0.0 1021106
09:00+19ese226458 0.0 1020503
12:00+22e21499 0.0 1020746
15:00+25ese23396 0.0 10191277
18:00+24sse33437 0.0 1018456
21:00+18ssw22651 0.0 101738
28 july, wed
wed2800:00+15se117539 0.0 101711
03:00+15ssw118564 0.0 101613
06:00+16sw16835 0.0 1015155
09:00+23wsw24572 0.1 1013523
12:00+28w243510 0.0 10102073
15:00+26wsw144393 0.0 1009702
18:00+27n233492 0.0 10071309
21:00+22s235417 0.1 100653
29 july, thu
thu2900:00+20sw005797 0.0 100411
03:00+19w115828 0.0 100319
06:00+18wsw1166100 0.0 100219
09:00+22sw3549100 0.0 1001472
12:00+21wsw4879100 1.1 1001523
15:00+20ssw398885 4.9 999666
18:00+20sw5108298 2.0 9971019
21:00+20wsw51172100 2.1 996934